This is the latest recevied weather packets stored in our database for station/object KK7MLS-13. If no packets are shown the sender has not sent any weather packets the latest 10 day(s).
| Time | Temp. | Humidity | Pressure | Rain* | Wind** | Luminosity | Snow |
|---|---|---|---|---|---|---|---|
| 1777600553 | 28.33° C | 24% | 1014.2 hPa | 0 mm | - | 27 W/m² | - |
| 1777600249 | 29.44° C | 27% | 1014.3 hPa | 0 mm | - | 30 W/m² | - |
| 1777599944 | 29.44° C | 24% | 1014.3 hPa | 0 mm | - | 32 W/m² | - |
| 1777599642 | 30° C | 23% | 1014.4 hPa | 0 mm | - | 58 W/m² | - |
| 1777599338 | 30.56° C | 24% | 1014.3 hPa | 0 mm | - | 68 W/m² | - |
| 1777599035 | 30.56° C | 23% | 1014.4 hPa | 0 mm | - | 36 W/m² | - |
| 1777598732 | 31.11° C | 23% | 1014.2 hPa | 0 mm | - | 97 W/m² | - |
| 1777598427 | 32.22° C | 24% | 1014.4 hPa | 0 mm | - | 114 W/m² | - |
| 1777598126 | 32.78° C | 20% | 1014.4 hPa | 0 mm | - | 103 W/m² | - |
| 1777597821 | 32.22° C | 23% | 1014.4 hPa | 0 mm | - | 144 W/m² | - |
| 1777597515 | 31.67° C | 24% | 1014.5 hPa | 0 mm | - | 43 W/m² | - |
| 1777597211 | 31.67° C | 23% | 1014.6 hPa | 0 mm | - | 149 W/m² | - |
| 1777596907 | 32.22° C | 22% | 1014.5 hPa | 0 mm | - | 188 W/m² | - |
| 1777596603 | 32.78° C | 20% | 1014.5 hPa | 0 mm | - | 193 W/m² | - |
| 1777596300 | 32.78° C | 25% | 1014.6 hPa | 0 mm | - | 214 W/m² | - |
| 1777595998 | 32.78° C | 23% | 1014.6 hPa | 0 mm | - | 230 W/m² | - |
| 1777595692 | 32.78° C | 23% | 1014.6 hPa | 0 mm | - | 245 W/m² | - |
| 1777595388 | 33.33° C | 23% | 1014.7 hPa | 0 mm | - | 260 W/m² | - |
| 1777595085 | 32.22° C | 23% | 1014.8 hPa | 0 mm | - | 273 W/m² | - |
| 1777594781 | 31.67° C | 25% | 1014.7 hPa | 0 mm | - | 288 W/m² | - |
| 1777594478 | 31.67° C | 23% | 1014.7 hPa | 0 mm | - | 303 W/m² | - |
| 1777594173 | 31.67° C | 27% | 1014.8 hPa | 0 mm | - | 316 W/m² | - |
| 1777593869 | 31.11° C | 24% | 1014.8 hPa | 0 mm | - | 333 W/m² | - |
| 1777593566 | 31.11° C | 24% | 1015 hPa | 0 mm | - | 347 W/m² | - |
| 1777593266 | 31.67° C | 23% | 1014.8 hPa | 0 mm | - | 360 W/m² | - |
* Rain latest hour (hover to see other rain measurements)
** Current wind speed in m/s (hover to see current wind gust speed)